Weather History for Mosby, MO

Change the Weather History Date:

Thursday, February 13, 2014

  Actual Average (KMKC) Record (KMKC)
Temperature  
Mean Temperature 35 °F -  
Max Temperature 46 °F 43 °F 60 °F (2006)
Min Temperature 24 °F 27 °F 10 °F (2004)
Degree Days  
Heating Degree Days 30    
Moisture  
Dew Point 27 °F    
Average Humidity 77    
Maximum Humidity 100    
Minimum Humidity 53    
Precipitation  
Precipitation 0.00 in - - ()
Sea Level Pressure  
Sea Level Pressure 29.83 in    
Wind  
Wind Speed 4 mph (SW)    
Max Wind Speed 14 mph    
Max Gust Speed 18 mph    
Visibility 9 miles    
Events      
Averages and records for this station are not official NWS values.
T = Trace of Precipitation, MM = Missing Value Source: NWS Daily Summary

Daily Weather History Graph

Daily Weather History Graph

Search for Another Location

Airport:

Trip Planner

Search our weather history database for the weather conditions in past years. The results will help you decide how hot, cold, wet, or windy it might be!

Date:

Astronomy

Feb. 13, 2014 Rise Set
Actual Time 7:11 AM CST 5:51 PM CST
Civil Twilight 6:43 AM CST 6:19 PM CST
Nautical Twilight 6:12 AM CST 6:50 PM CST
Astronomical Twilight 5:41 AM CST 7:22 PM CST
Moon 5:00 PM CST (2/13) 6:05 AM CST (2/13)
Length of Visible Light 11h 35m
Length of Day
10h 40m
Waxing Gibbous, 99% of the Moon is Illuminated
Feb 13
Waxing Gibbous
Feb 14
Full
Feb 22
Last Quarter
Mar 1
New
Mar 8
First Quarter

Hourly Weather History & Observations

Time (CST) Temp. Windchill Dew Point Humidity Pressure Visibility Wind Dir Wind Speed Gust Speed Precip Events Conditions
12:15 AM 26.6 °F 20.0 °F 21.2 °F 80% 29.94 in 10.0 mi SE 5.8 mph - N/A   Mostly Cloudy
12:35 AM 26.6 °F 22.6 °F 21.2 °F 80% 29.94 in 10.0 mi South 3.5 mph - N/A   Scattered Clouds
12:55 AM 26.6 °F 22.6 °F 21.2 °F 80% 29.96 in 10.0 mi WSW 3.5 mph - N/A   Mostly Cloudy
1:15 AM 26.6 °F - 21.2 °F 80% 29.95 in 10.0 mi Calm Calm - N/A   Mostly Cloudy
1:35 AM 26.6 °F - 21.2 °F 80% 29.94 in 7.0 mi Calm Calm - N/A   Scattered Clouds
1:55 AM 26.6 °F 22.6 °F 21.2 °F 80% 29.96 in 7.0 mi SW 3.5 mph - N/A   Unknown
2:15 AM 26.6 °F - 21.2 °F 80% 29.94 in 7.0 mi Calm Calm - N/A   Unknown
2:35 AM 24.8 °F - 21.2 °F 86% 29.93 in 7.0 mi Calm Calm - N/A   Mostly Cloudy
2:55 AM 24.8 °F - 21.2 °F 86% 29.92 in 7.0 mi Calm Calm - N/A   Scattered Clouds
3:15 AM 26.6 °F 21.2 °F 21.2 °F 80% 29.91 in 7.0 mi SE 4.6 mph - N/A   Clear
3:35 AM 26.6 °F 21.2 °F 21.2 °F 80% 29.88 in 7.0 mi SE 4.6 mph - N/A   Clear
3:55 AM 24.8 °F 20.5 °F 21.2 °F 86% 29.89 in 7.0 mi SSE 3.5 mph - N/A   Clear
4:15 AM 24.8 °F 20.5 °F 21.2 °F 86% 29.88 in 7.0 mi SSE 3.5 mph - N/A   Clear
4:35 AM 24.8 °F - 21.2 °F 86% 29.87 in 7.0 mi Calm Calm - N/A   Scattered Clouds
4:55 AM 24.8 °F 20.5 °F 21.2 °F 86% 29.86 in 7.0 mi ESE 3.5 mph - N/A   Scattered Clouds
5:15 AM 24.8 °F - 21.2 °F 86% 29.88 in 7.0 mi Calm Calm - N/A   Clear
5:35 AM 26.6 °F - 21.2 °F 80% 29.88 in 7.0 mi Calm Calm - N/A   Clear
5:55 AM 26.6 °F - 23.0 °F 86% 29.88 in 7.0 mi Calm Calm - N/A   Scattered Clouds
6:15 AM 26.6 °F 22.6 °F 23.0 °F 86% 29.87 in 7.0 mi SSE 3.5 mph - N/A   Clear
6:35 AM 26.6 °F 21.2 °F 23.0 °F 86% 29.87 in 7.0 mi South 4.6 mph - N/A   Clear
6:55 AM 28.4 °F 22.2 °F 24.8 °F 86% 29.86 in 7.0 mi South 5.8 mph - N/A   Scattered Clouds
7:15 AM 28.4 °F 22.2 °F 24.8 °F 86% 29.86 in 7.0 mi South 5.8 mph - N/A   Scattered Clouds
7:35 AM 28.4 °F 22.2 °F 24.8 °F 86% 29.86 in 7.0 mi SSW 5.8 mph - N/A   Scattered Clouds
7:55 AM 28.4 °F 23.3 °F 24.8 °F 86% 29.86 in 7.0 mi South 4.6 mph - N/A   Clear
8:15 AM 28.4 °F 20.4 °F 24.8 °F 86% 29.85 in 7.0 mi South 8.1 mph - N/A   Clear
8:35 AM 30.2 °F 25.4 °F 26.6 °F 86% 29.86 in 7.0 mi SSW 4.6 mph - N/A   Unknown
8:55 AM 30.2 °F 25.4 °F 26.6 °F 86% 29.85 in 7.0 mi South 4.6 mph - N/A   Unknown
9:15 AM 32.0 °F 26.4 °F 26.6 °F 80% 29.85 in 7.0 mi South 5.8 mph - N/A   Unknown
9:35 AM 32.0 °F 26.4 °F 26.6 °F 80% 29.83 in 7.0 mi SSW 5.8 mph - N/A   Clear
9:55 AM 35.6 °F 26.6 °F 28.4 °F 75% 29.84 in 10.0 mi SW 13.8 mph 18.4 mph N/A   Clear
10:15 AM 35.6 °F 28.0 °F 28.4 °F 75% 29.84 in 10.0 mi WSW 10.4 mph 16.1 mph N/A   Clear
10:35 AM 37.4 °F 30.3 °F 28.4 °F 70% 29.85 in 10.0 mi WSW 10.4 mph 16.1 mph N/A   Clear
10:55 AM 37.4 °F 28.9 °F 28.4 °F 70% 29.85 in 10.0 mi WSW 13.8 mph 18.4 mph N/A   Clear
11:15 AM 37.4 °F 29.8 °F 28.4 °F 70% 29.85 in 10.0 mi SW 11.5 mph - N/A   Clear
11:35 AM 37.4 °F 31.4 °F 28.4 °F 70% 29.84 in 10.0 mi WSW 8.1 mph - N/A   Clear
11:55 AM 39.2 °F 33.0 °F 28.4 °F 65% 29.83 in 10.0 mi WSW 9.2 mph - N/A   Clear
12:15 PM 39.2 °F 33.0 °F 28.4 °F 65% 29.81 in 10.0 mi WSW 9.2 mph - N/A   Clear
12:35 PM 41.0 °F 35.2 °F 28.4 °F 61% 29.81 in 10.0 mi WSW 9.2 mph - N/A   Clear
12:55 PM 41.0 °F 35.8 °F 30.2 °F 65% 29.79 in 10.0 mi SW 8.1 mph - N/A   Clear
1:35 PM 42.8 °F 38.0 °F 30.2 °F 61% 29.77 in 10.0 mi SW 8.1 mph - N/A   Clear
1:55 PM 42.8 °F 38.6 °F 30.2 °F 61% 29.76 in 10.0 mi WSW 6.9 mph - N/A   Clear
2:15 PM 42.8 °F 37.5 °F 30.2 °F 61% 29.76 in 10.0 mi WSW 9.2 mph - N/A   Unknown
2:35 PM 44.6 °F 39.7 °F 30.2 °F 57% 29.76 in 10.0 mi WSW 9.2 mph - N/A   Clear
2:55 PM 44.6 °F 40.2 °F 30.2 °F 57% 29.77 in 10.0 mi West 8.1 mph - N/A   Clear
3:15 PM 44.6 °F 39.7 °F 30.2 °F 57% 29.77 in 10.0 mi West 9.2 mph - N/A   Clear
3:35 PM 44.6 °F 40.2 °F 30.2 °F 57% 29.76 in 10.0 mi West 8.1 mph - N/A   Clear
3:55 PM 46.4 °F 43.5 °F 30.2 °F 53% 29.77 in 10.0 mi WSW 5.8 mph - N/A   Clear
4:15 PM 44.6 °F 40.7 °F 30.2 °F 57% 29.77 in 10.0 mi WSW 6.9 mph - N/A   Clear
4:35 PM 44.6 °F 40.7 °F 30.2 °F 57% 29.77 in 10.0 mi WSW 6.9 mph - N/A   Unknown
4:55 PM 44.6 °F 42.2 °F 30.2 °F 57% 29.77 in 10.0 mi WSW 4.6 mph - N/A   Clear
5:15 PM 44.6 °F 40.7 °F 30.2 °F 57% 29.77 in 10.0 mi WSW 6.9 mph - N/A   Clear
5:35 PM 44.6 °F 42.2 °F 30.2 °F 57% 29.77 in 10.0 mi WSW 4.6 mph - N/A   Clear
5:55 PM 42.8 °F 40.1 °F 30.2 °F 61% 29.78 in 10.0 mi WSW 4.6 mph - N/A   Clear
6:15 PM 42.8 °F - 30.2 °F 61% 29.78 in 10.0 mi Calm Calm - N/A   Clear
6:35 PM 41.0 °F 39.0 °F 30.2 °F 65% 29.78 in 10.0 mi SW 3.5 mph - N/A   Clear
6:55 PM 39.2 °F - 30.2 °F 70% 29.78 in 10.0 mi Calm Calm - N/A   Clear
7:15 PM 35.6 °F - 30.2 °F 81% 29.78 in 10.0 mi Calm Calm - N/A   Clear
7:35 PM 33.8 °F - 30.2 °F 87% 29.77 in 10.0 mi Calm Calm - N/A   Clear
7:55 PM 33.8 °F - 30.2 °F 87% 29.78 in 10.0 mi Calm Calm - N/A   Clear
8:15 PM 33.8 °F - 30.2 °F 87% 29.78 in 10.0 mi Calm Calm - N/A   Clear
8:35 PM 35.6 °F - 30.2 °F 81% 29.78 in 10.0 mi Calm Calm - N/A   Clear
8:55 PM 32.0 °F - 28.4 °F 87% 29.78 in 10.0 mi Calm Calm - N/A   Clear
9:15 PM 32.0 °F - 28.4 °F 87% 29.78 in 10.0 mi Calm Calm - N/A   Clear
9:35 PM 32.0 °F 28.7 °F 28.4 °F 87% 29.77 in 10.0 mi East 3.5 mph - N/A   Clear
9:55 PM 30.2 °F - 28.4 °F 93% 29.77 in 10.0 mi Calm Calm - N/A   Clear
10:15 PM 30.2 °F - 26.6 °F 86% 29.76 in 10.0 mi Calm Calm - N/A   Clear
10:35 PM 30.2 °F - 26.6 °F 86% 29.75 in 10.0 mi Calm Calm - N/A   Clear
10:55 PM 28.4 °F - 26.6 °F 93% 29.75 in 7.0 mi Calm Calm - N/A   Clear
11:15 PM 26.6 °F - 26.6 °F 100% 29.74 in 7.0 mi Calm Calm - N/A   Clear
11:35 PM 26.6 °F - 26.6 °F 100% 29.74 in 7.0 mi Calm Calm - N/A   Clear
11:55 PM 26.6 °F - 26.6 °F 100% 29.73 in 7.0 mi Calm Calm - N/A   Clear